Location: Brivio
(45.7333°N, 9.4500°E)
Time: 05:46:13
(UTC+00:00)

Cosmos 1726 Rocket - Pass Details

Date: 18 October 2019
Orbit: 602 x 630 km, 82.5° (Epoch: 17 November)

Event Time Altitude Azimuth Distance (km) Brightness Sun altitude
Rises 16:57:27 0° 176° (S) 2,888 7.1 -5.2°
Reaches altitude 10° 16:59:42 10° 172° (S) 1,982 6.2 -5.6°
Maximum altitude 17:04:00 56° 95° (E) 738 3.6 -6.3°
Drops below altitude 10° 17:08:17 10° 17° (NNE) 1,981 5.9 -7.1°
Sets 17:10:32 0° 13° (NNE) 2,886 6.8 -7.5°
